| time (UTC) | temp F | wind direction | speed knots | gust knots | rain 1hr in | rain 24hr in | rain mn in | humidity % | barometer mb |
| 20260901105004 | 65 | 321 | 0.9 | 0.0 | 0.00 | 0.00 | 0.00 | 96 | 1014.5 |
| 20260901104502 | 65 | 294 | 1.7 | 0.0 | 0.00 | 0.00 | 0.00 | 96 | 1014.5 |
| 20260901104001 | 65 | 286 | 1.7 | 0.0 | 0.00 | 0.00 | 0.00 | 96 | 1014.5 |
| 20260901103602 | 65 | 282 | 0.9 | 0.0 | 0.00 | 0.00 | 0.00 | 95 | 1014.4 |
| 20260901103100 | 65 | 150 | 0.0 | 0.0 | 0.00 | 0.00 | 0.00 | 95 | 1013.9 |
| 20260901102600 | 65 | 94 | 0.0 | 0.0 | 0.00 | 0.00 | 0.00 | 95 | 1014.2 |
| 20260901102101 | 65 | 81 | 0.9 | 0.0 | 0.00 | 0.00 | 0.00 | 95 | 1014.3 |
| 20260901101600 | 65 | 81 | 1.7 | 0.0 | 0.00 | 0.00 | 0.00 | 95 | 1014.3 |
| 20260901101059 | 65 | 96 | 2.6 | 0.0 | 0.00 | 0.00 | 0.00 | 95 | 1014.3 |
| 20260901100559 | 65 | 110 | 2.6 | 0.0 | 0.00 | 0.00 | 0.00 | 96 | 1014.1 |
| 20260901100101 | 65 | 27 | 3.5 | 0.0 | 0.00 | 0.00 | 0.00 | 95 | 1014.4 |
| 20260901095559 | 65 | 96 | 2.6 | 0.0 | 0.00 | 0.00 | 0.00 | 96 | 1014.0 |
| 20260901095059 | 65 | 15 | 0.9 | 0.0 | 0.00 | 0.00 | 0.00 | 95 | 1014.6 |
| 20260901094559 | 65 | 312 | 1.7 | 0.0 | 0.00 | 0.00 | 0.00 | 95 | 1014.9 |
| 20260901094058 | 65 | 108 | 2.6 | 0.0 | 0.00 | 0.00 | 0.00 | 95 | 1014.3 |
| 20260901093557 | 65 | 56 | 3.5 | 0.0 | 0.00 | 0.00 | 0.00 | 95 | 1014.0 |
| 20260901093101 | 65 | 355 | 3.5 | 0.0 | 0.00 | 0.00 | 0.00 | 96 | 1014.4 |
| 20260901092556 | 65 | 22 | 2.6 | 0.0 | 0.00 | 0.00 | 0.00 | 95 | 1014.0 |
| 20260901092056 | 65 | 76 | 0.9 | 0.0 | 0.00 | 0.00 | 0.00 | 94 | 1013.7 |
| 20260901091605 | 65 | 117 | 0.0 | 0.0 | 0.00 | 0.00 | 0.00 | 94 | 1013.7 |
| 20260901091055 | 65 | 122 | 0.9 | 0.0 | 0.00 | 0.00 | 0.00 | 94 | 1013.7 |
| 20260901090555 | 65 | 122 | 1.7 | 0.0 | 0.00 | 0.00 | 0.00 | 94 | 1013.7 |
| 20260901090057 | 65 | 121 | 2.6 | 0.0 | 0.00 | 0.00 | 0.00 | 94 | 1013.7 |
| 20260901085555 | 65 | 123 | 2.6 | 0.0 | 0.00 | 0.00 | 0.00 | 94 | 1013.5 |
| 20260901085054 | 65 | 100 | 1.7 | 0.0 | 0.00 | 0.00 | 0.00 | 94 | 1013.7 |
| 20260901084558 | 65 | 117 | 1.7 | 0.0 | 0.00 | 0.00 | 0.00 | 94 | 1013.7 |
| 20260901084054 | 65 | 117 | 1.7 | 0.0 | 0.00 | 0.00 | 0.00 | 94 | 1013.7 |
| 20260901083553 | 65 | 118 | 1.7 | 0.0 | 0.00 | 0.00 | 0.00 | 94 | 1013.8 |
| 20260901083052 | 65 | 119 | 1.7 | 0.0 | 0.00 | 0.00 | 0.00 | 94 | 1013.8 |
| 20260901082551 | 65 | 119 | 0.9 | 0.0 | 0.00 | 0.00 | 0.00 | 94 | 1013.9 |
| 20260901082050 | 65 | 119 | 0.0 | 0.0 | 0.00 | 0.00 | 0.00 | 94 | 1014.0 |
| 20260901081551 | 65 | 119 | 0.0 | 0.0 | 0.00 | 0.00 | 0.00 | 94 | 1014.1 |
| 20260901081051 | 65 | 119 | 0.0 | 0.0 | 0.00 | 0.00 | 0.00 | 93 | 1014.0 |
| 20260901080553 | 65 | 119 | 0.9 | 0.0 | 0.00 | 0.00 | 0.00 | 93 | 1014.1 |
| 20260901080050 | 65 | 119 | 2.6 | 0.0 | 0.00 | 0.00 | 0.00 | 93 | 1014.0 |
| 20260901075550 | 65 | 119 | 2.6 | 0.0 | 0.00 | 0.00 | 0.00 | 93 | 1014.1 |
| 20260901075048 | 65 | 121 | 2.6 | 0.0 | 0.00 | 0.00 | 0.00 | 93 | 1014.2 |
| 20260901074548 | 65 | 102 | 0.9 | 0.0 | 0.00 | 0.00 | 0.00 | 94 | 1014.2 |
| 20260901074049 | 64 | 80 | 0.0 | 0.0 | 0.00 | 0.00 | 0.00 | 94 | 1014.5 |
| 20260901073547 | 64 | 78 | 0.0 | 0.0 | 0.00 | 0.00 | 0.00 | 94 | 1014.6 |
| 20260901073046 | 64 | 77 | 0.9 | 0.0 | 0.00 | 0.00 | 0.00 | 94 | 1014.7 |
| 20260901072547 | 64 | 207 | 0.9 | 0.0 | 0.00 | 0.00 | 0.00 | 94 | 1014.7 |
| 20260901072049 | 64 | 207 | 0.9 | 0.0 | 0.00 | 0.00 | 0.00 | 94 | 1014.6 |
| 20260901071557 | 64 | 252 | 0.9 | 0.0 | 0.00 | 0.00 | 0.00 | 94 | 1014.6 |
| 20260901071050 | 64 | 252 | 0.9 | 0.0 | 0.00 | 0.00 | 0.00 | 94 | 1014.5 |
| 20260901070546 | 64 | 256 | 0.9 | 0.0 | 0.00 | 0.00 | 0.00 | 94 | 1014.8 |
| 20260901070046 | 64 | 257 | 0.9 | 0.0 | 0.00 | 0.00 | 0.00 | 94 | 1014.8 |
| 20260901065546 | 64 | 128 | 0.0 | 0.0 | 0.00 | 0.00 | 0.00 | 94 | 1014.7 |
| 20260901065046 | 64 | 128 | 0.0 | 0.0 | 0.00 | 0.00 | 0.00 | 94 | 1014.5 |
| 20260901064546 | 64 | 128 | 0.0 | 0.0 | 0.00 | 0.00 | 0.00 | 94 | 1014.5 |
| 20260901064045 | 64 | 128 | 0.0 | 0.0 | 0.00 | 0.00 | 0.00 | 94 | 1014.5 |
| 20260901063544 | 64 | 128 | 0.9 | 0.0 | 0.00 | 0.00 | 0.00 | 94 | 1014.6 |
| 20260901063043 | 64 | 128 | 1.7 | 0.0 | 0.00 | 0.00 | 0.00 | 94 | 1014.8 |
| 20260901062543 | 64 | 128 | 1.7 | 0.0 | 0.00 | 0.00 | 0.00 | 94 | 1014.9 |
| 20260901062045 | 64 | 128 | 2.6 | 0.0 | 0.00 | 0.00 | 0.00 | 94 | 1014.9 |
| 20260901061542 | 64 | 128 | 2.6 | 0.0 | 0.00 | 0.00 | 0.00 | 94 | 1014.9 |
| 20260901061042 | 64 | 128 | 2.6 | 0.0 | 0.00 | 0.00 | 0.00 | 94 | 1014.9 |
| 20260901060544 | 64 | 128 | 2.6 | 0.0 | 0.00 | 0.00 | 0.00 | 94 | 1015.0 |
| 20260901060041 | 64 | 128 | 2.6 | 0.0 | 0.00 | 0.00 | 0.00 | 94 | 1015.1 |
| 20260901055540 | 65 | 130 | 2.6 | 0.0 | 0.00 | 0.00 | 0.00 | 94 | 1015.3 |
| 20260901055039 | 64 | 130 | 3.5 | 0.0 | 0.00 | 0.00 | 0.00 | 94 | 1015.4 |
| 20260901054539 | 65 | 121 | 1.7 | 0.0 | 0.00 | 0.00 | 0.00 | 94 | 1015.5 |
| 20260901054040 | 64 | 127 | 0.0 | 0.0 | 0.00 | 0.00 | 0.00 | 94 | 1015.4 |
| 20260901053540 | 64 | 134 | 0.0 | 0.0 | 0.00 | 0.00 | 0.00 | 94 | 1015.5 |
| 20260901053043 | 64 | 140 | 0.0 | 0.0 | 0.00 | 0.00 | 0.00 | 94 | 1015.7 |
| 20260901052538 | 64 | 140 | 0.0 | 0.0 | 0.00 | 0.00 | 0.00 | 94 | 1015.7 |
| 20260901052038 | 64 | 140 | 0.0 | 0.0 | 0.00 | 0.00 | 0.00 | 94 | 1015.7 |
| 20260901051538 | 64 | 140 | 0.9 | 0.0 | 0.00 | 0.00 | 0.00 | 94 | 1015.7 |
| 20260901051038 | 64 | 140 | 1.7 | 0.0 | 0.00 | 0.00 | 0.00 | 94 | 1015.7 |
| 20260901050538 | 64 | 142 | 2.6 | 0.0 | 0.00 | 0.00 | 0.00 | 94 | 1015.5 |
| 20260901050038 | 64 | 143 | 3.5 | 0.0 | 0.00 | 0.00 | 0.00 | 94 | 1015.6 |
| 20260901045537 | 64 | 136 | 4.3 | 0.0 | 0.00 | 0.00 | 0.00 | 93 | 1015.3 |
| 20260901045036 | 64 | 126 | 2.6 | 0.0 | 0.00 | 0.00 | 0.00 | 93 | 1015.7 |
| 20260901044543 | 64 | 88 | 2.6 | 0.0 | 0.00 | 0.00 | 0.00 | 94 | 1016.1 |
| 20260901044036 | 64 | 92 | 1.7 | 0.0 | 0.00 | 0.00 | 0.00 | 94 | 1016.1 |
| 20260901043535 | 64 | 136 | 1.7 | 0.0 | 0.00 | 0.00 | 0.00 | 94 | 1016.1 |
| 20260901043033 | 64 | 137 | 1.7 | 0.0 | 0.00 | 0.00 | 0.00 | 94 | 1015.8 |
| 20260901042537 | 64 | 137 | 0.9 | 0.0 | 0.00 | 0.00 | 0.00 | 94 | 1015.7 |
| 20260901042033 | 64 | 138 | 1.7 | 0.0 | 0.00 | 0.00 | 0.00 | 94 | 1015.7 |
| 20260901041533 | 64 | 138 | 3.5 | 0.0 | 0.00 | 0.00 | 0.00 | 94 | 1015.6 |
| 20260901041035 | 64 | 138 | 2.6 | 0.0 | 0.00 | 0.00 | 0.00 | 94 | 1015.6 |
| 20260901040533 | 64 | 137 | 1.7 | 0.0 | 0.00 | 0.00 | 0.00 | 94 | 1015.7 |
| 20260901040031 | 64 | 137 | 1.7 | 0.0 | 0.00 | 0.00 | 0.00 | 93 | 1015.8 |
| 20260901035533 | 64 | 136 | 1.7 | 0.0 | 0.00 | 0.00 | 0.00 | 94 | 1015.8 |
| 20260901035031 | 64 | 135 | 1.7 | 0.0 | 0.00 | 0.00 | 0.00 | 93 | 1015.8 |
| 20260901034533 | 64 | 135 | 0.9 | 0.0 | 0.00 | 0.00 | 0.00 | 93 | 1015.8 |
| 20260901034034 | 64 | 135 | 0.9 | 0.0 | 0.00 | 0.00 | 0.00 | 93 | 1015.9 |
| 20260901033530 | 64 | 135 | 0.9 | 0.0 | 0.00 | 0.00 | 0.00 | 93 | 1015.8 |
| 20260901033031 | 64 | 135 | 0.9 | 0.0 | 0.00 | 0.00 | 0.00 | 93 | 1015.9 |
| 20260901032530 | 65 | 135 | 1.7 | 0.0 | 0.00 | 0.00 | 0.00 | 93 | 1016.0 |
| 20260901032033 | 65 | 135 | 1.7 | 0.0 | 0.00 | 0.00 | 0.00 | 93 | 1015.8 |
| 20260901031532 | 65 | 134 | 1.7 | 0.0 | 0.00 | 0.00 | 0.00 | 93 | 1016.0 |
| 20260901031029 | 65 | 132 | 1.7 | 0.0 | 0.00 | 0.00 | 0.00 | 93 | 1016.1 |
| 20260901030529 | 65 | 133 | 2.6 | 0.0 | 0.00 | 0.00 | 0.00 | 93 | 1016.1 |
| 20260901030029 | 65 | 134 | 3.5 | 0.0 | 0.00 | 0.00 | 0.00 | 93 | 1015.9 |
| 20260901025528 | 65 | 134 | 3.5 | 0.0 | 0.00 | 0.00 | 0.00 | 93 | 1016.0 |
| 20260901025029 | 65 | 153 | 3.5 | 0.0 | 0.00 | 0.00 | 0.00 | 94 | 1016.0 |
| 20260901024528 | 65 | 134 | 3.5 | 0.0 | 0.00 | 0.00 | 0.00 | 94 | 1016.1 |
| 20260901024029 | 65 | 134 | 2.6 | 0.0 | 0.00 | 0.00 | 0.00 | 94 | 1016.2 |
| 20260901023528 | 65 | 140 | 0.9 | 0.0 | 0.00 | 0.00 | 0.00 | 93 | 1016.2 |
| 20260901023038 | 65 | 140 | 0.0 | 0.0 | 0.00 | 0.00 | 0.00 | 93 | 1016.5 |
| 20260901022528 | 65 | 141 | 0.0 | 0.0 | 0.00 | 0.00 | 0.00 | 93 | 1016.5 |
| 20260901022027 | 65 | 141 | 0.9 | 0.0 | 0.00 | 0.00 | 0.00 | 93 | 1016.5 |
| 20260901021531 | 65 | 141 | 1.7 | 0.0 | 0.00 | 0.00 | 0.00 | 93 | 1016.5 |
| 20260901021027 | 65 | 141 | 1.7 | 0.0 | 0.00 | 0.00 | 0.00 | 93 | 1016.4 |
| 20260901020530 | 65 | 141 | 0.9 | 0.0 | 0.00 | 0.00 | 0.00 | 94 | 1016.5 |
| 20260901020026 | 65 | 141 | 0.0 | 0.0 | 0.00 | 0.00 | 0.00 | 93 | 1016.4 |
| 20260901015526 | 65 | 142 | 0.0 | 0.0 | 0.00 | 0.00 | 0.00 | 94 | 1016.5 |
| 20260901015026 | 65 | 142 | 0.0 | 0.0 | 0.00 | 0.00 | 0.00 | 93 | 1016.4 |
| 20260901014526 | 65 | 142 | 0.0 | 0.0 | 0.00 | 0.00 | 0.00 | 93 | 1016.5 |
| 20260901014026 | 65 | 142 | 0.0 | 0.0 | 0.00 | 0.00 | 0.00 | 94 | 1016.3 |
| 20260901013525 | 65 | 142 | 0.0 | 0.0 | 0.00 | 0.00 | 0.00 | 93 | 1016.3 |
| 20260901013028 | 65 | 142 | 0.0 | 0.0 | 0.00 | 0.00 | 0.00 | 94 | 1016.2 |
| 20260901012525 | 65 | 142 | 0.9 | 0.0 | 0.00 | 0.00 | 0.00 | 94 | 1016.3 |
| 20260901012025 | 65 | 142 | 1.7 | 0.0 | 0.00 | 0.00 | 0.00 | 94 | 1016.3 |
| 20260901011525 | 65 | 142 | 1.7 | 0.0 | 0.00 | 0.00 | 0.00 | 94 | 1016.2 |
| 20260901011025 | 65 | 143 | 1.7 | 0.0 | 0.00 | 0.00 | 0.00 | 93 | 1016.2 |
| 20260901010525 | 65 | 144 | 1.7 | 0.0 | 0.00 | 0.00 | 0.00 | 94 | 1016.1 |
| 20260901010025 | 65 | 144 | 2.6 | 0.0 | 0.00 | 0.00 | 0.00 | 94 | 1016.1 |
| 20260901005525 | 65 | 136 | 2.6 | 0.0 | 0.00 | 0.00 | 0.00 | 94 | 1016.1 |
| 20260901005026 | 65 | 143 | 2.6 | 0.0 | 0.00 | 0.00 | 0.00 | 93 | 1016.0 |
| 20260901004524 | 65 | 153 | 2.6 | 0.0 | 0.00 | 0.00 | 0.00 | 93 | 1016.0 |
| 20260901004023 | 65 | 162 | 2.6 | 0.0 | 0.00 | 0.00 | 0.00 | 93 | 1016.2 |
| 20260901003523 | 65 | 173 | 2.6 | 0.0 | 0.00 | 0.00 | 0.00 | 93 | 1016.2 |
| 20260901003024 | 65 | 157 | 2.6 | 0.0 | 0.00 | 0.00 | 0.00 | 93 | 1016.3 |
| 20260901002523 | 65 | 159 | 1.7 | 0.0 | 0.00 | 0.00 | 0.00 | 93 | 1016.1 |
| 20260901002024 | 65 | 155 | 0.9 | 0.0 | 0.00 | 0.00 | 0.00 | 93 | 1016.2 |
| 20260901001524 | 65 | 147 | 0.0 | 0.0 | 0.00 | 0.00 | 0.00 | 93 | 1016.2 |
| 20260901001022 | 65 | 140 | 0.0 | 0.0 | 0.00 | 0.00 | 0.00 | 93 | 1016.2 |
| 20260901000521 | 65 | 139 | 0.0 | 0.0 | 0.00 | 0.00 | 0.00 | 93 | 1016.2 |
| 20260901000021 | 65 | 139 | 0.9 | 0.0 | 0.00 | 0.00 | 0.00 | 92 | 1016.4 |
| 20260831235525 | 65 | 139 | 2.6 | 0.0 | 0.00 | 0.00 | 0.00 | 92 | 1016.4 |
| 20260831235021 | 65 | 134 | 3.5 | 0.0 | 0.00 | 0.00 | 0.00 | 92 | 1016.4 |
| 20260831234521 | 65 | 132 | 1.7 | 0.0 | 0.00 | 0.00 | 0.00 | 92 | 1016.4 |
| 20260831234021 | 65 | 130 | 1.7 | 0.0 | 0.00 | 0.00 | 0.00 | 92 | 1016.5 |
| 20260831233524 | 65 | 129 | 2.6 | 0.0 | 0.00 | 0.00 | 0.00 | 92 | 1016.4 |
| 20260831233020 | 65 | 127 | 3.5 | 0.0 | 0.00 | 0.00 | 0.00 | 92 | 1016.4 |
| 20260831232520 | 65 | 127 | 3.5 | 0.0 | 0.00 | 0.00 | 0.00 | 92 | 1016.4 |
| 20260831232019 | 65 | 130 | 3.5 | 0.0 | 0.00 | 0.00 | 0.00 | 92 | 1016.5 |
| 20260831231528 | 65 | 133 | 2.6 | 0.0 | 0.00 | 0.00 | 0.00 | 92 | 1016.5 |
| 20260831231020 | 65 | 144 | 2.6 | 0.0 | 0.00 | 0.00 | 0.00 | 92 | 1016.5 |
| 20260831230519 | 65 | 146 | 3.5 | 0.0 | 0.00 | 0.00 | 0.00 | 92 | 1016.5 |
| 20260831230018 | 66 | 133 | 4.3 | 0.0 | 0.00 | 0.00 | 0.00 | 91 | 1016.5 |
| 20260831225518 | 66 | 138 | 4.3 | 0.0 | 0.00 | 0.00 | 0.00 | 91 | 1016.5 |
| 20260831225018 | 66 | 140 | 3.5 | 0.0 | 0.00 | 0.00 | 0.00 | 91 | 1016.5 |
| 20260831224517 | 66 | 130 | 3.5 | 0.0 | 0.00 | 0.00 | 0.00 | 91 | 1016.6 |
| 20260831224018 | 66 | 140 | 3.5 | 0.0 | 0.00 | 0.00 | 0.00 | 91 | 1016.7 |
| 20260831223517 | 66 | 136 | 4.3 | 0.0 | 0.00 | 0.00 | 0.00 | 91 | 1016.6 |
| 20260831223016 | 66 | 126 | 4.3 | 0.0 | 0.00 | 0.00 | 0.00 | 91 | 1016.7 |
| 20260831222517 | 66 | 125 | 4.3 | 0.0 | 0.00 | 0.00 | 0.00 | 91 | 1016.8 |
| 20260831222015 | 66 | 124 | 4.3 | 0.0 | 0.00 | 0.00 | 0.00 | 91 | 1016.8 |
| 20260831221516 | 66 | 115 | 4.3 | 0.0 | 0.00 | 0.00 | 0.00 | 91 | 1016.8 |
| 20260831221015 | 66 | 121 | 2.6 | 0.0 | 0.00 | 0.00 | 0.00 | 90 | 1016.9 |
| 20260831220517 | 66 | 138 | 1.7 | 0.0 | 0.00 | 0.00 | 0.00 | 90 | 1017.0 |
| 20260831220016 | 66 | 139 | 3.5 | 0.0 | 0.00 | 0.00 | 0.00 | 90 | 1017.0 |
| 20260831215516 | 66 | 129 | 3.5 | 0.0 | 0.00 | 0.00 | 0.00 | 90 | 1017.0 |
| 20260831215016 | 66 | 96 | 3.5 | 0.0 | 0.00 | 0.00 | 0.00 | 89 | 1017.0 |
| 20260831214515 | 67 | 106 | 1.7 | 0.0 | 0.00 | 0.00 | 0.00 | 89 | 1017.2 |
| 20260831214017 | 67 | 134 | 0.9 | 0.0 | 0.00 | 0.00 | 0.00 | 88 | 1017.2 |
| 20260831213516 | 67 | 215 | 0.9 | 0.0 | 0.00 | 0.00 | 0.00 | 87 | 1017.2 |
| 20260831213014 | 67 | 198 | 2.6 | 0.0 | 0.00 | 0.00 | 0.00 | 86 | 1017.2 |
| 20260831212515 | 68 | 224 | 5.2 | 0.0 | 0.00 | 0.00 | 0.00 | 86 | 1017.2 |
| 20260831212015 | 68 | 235 | 7.8 | 0.0 | 0.00 | 0.00 | 0.00 | 87 | 1017.2 |
| 20260831211525 | 68 | 243 | 10.4 | 0.0 | 0.00 | 0.00 | 0.00 | 87 | 1017.2 |
| 20260831211013 | 69 | 240 | 10.4 | 0.0 | 0.00 | 0.00 | 0.00 | 86 | 1017.2 |
| 20260831210513 | 69 | 254 | 11.3 | 0.0 | 0.00 | 0.00 | 0.00 | 85 | 1017.2 |
| 20260831210014 | 70 | 246 | 15.6 | 0.0 | 0.00 | 0.00 | 0.00 | 84 | 1017.1 |
| 20260831205513 | 70 | 244 | 16.5 | 0.0 | 0.00 | 0.00 | 0.00 | 83 | 1017.1 |
| 20260831205013 | 71 | 252 | 15.6 | 0.0 | 0.00 | 0.00 | 0.00 | 82 | 1017.0 |
| 20260831204513 | 71 | 258 | 9.6 | 0.0 | 0.00 | 0.00 | 0.00 | 82 | 1017.1 |
| 20260831204013 | 72 | 246 | 7.0 | 0.0 | 0.00 | 0.00 | 0.00 | 80 | 1017.0 |
| 20260831203513 | 72 | 240 | 7.0 | 0.0 | 0.00 | 0.00 | 0.00 | 79 | 1017.0 |
| 20260831203018 | 73 | 213 | 4.3 | 0.0 | 0.00 | 0.00 | 0.00 | 79 | 1016.8 |
| 20260831202511 | 73 | 221 | 1.7 | 0.0 | 0.00 | 0.00 | 0.00 | 76 | 1016.7 |
| 20260831202012 | 73 | 236 | 3.5 | 0.0 | 0.00 | 0.00 | 0.00 | 78 | 1016.7 |
| 20260831201511 | 73 | 252 | 4.3 | 0.0 | 0.00 | 0.00 | 0.00 | 77 | 1016.7 |
| 20260831201012 | 73 | 257 | 2.6 | 0.0 | 0.00 | 0.00 | 0.00 | 77 | 1016.7 |
| 20260831200512 | 73 | 247 | 2.6 | 0.0 | 0.00 | 0.00 | 0.00 | 75 | 1016.8 |
| 20260831200011 | 73 | 252 | 2.6 | 0.0 | 0.00 | 0.00 | 0.00 | 76 | 1016.7 |
| 20260831195513 | 73 | 267 | 1.7 | 0.0 | 0.00 | 0.00 | 0.00 | 76 | 1016.8 |
| 20260831195010 | 73 | 302 | 2.6 | 0.0 | 0.00 | 0.00 | 0.00 | 73 | 1016.9 |
| 20260831194511 | 73 | 303 | 2.6 | 0.0 | 0.00 | 0.00 | 0.00 | 75 | 1016.8 |
| 20260831194009 | 73 | 275 | 0.9 | 0.0 | 0.00 | 0.00 | 0.00 | 75 | 1016.9 |
| 20260831193510 | 73 | 284 | 0.9 | 0.0 | 0.00 | 0.00 | 0.00 | 75 | 1016.9 |
| 20260831193009 | 73 | 284 | 1.7 | 0.0 | 0.00 | 0.00 | 0.00 | 73 | 1016.9 |
| 20260831192508 | 73 | 285 | 1.7 | 0.0 | 0.00 | 0.00 | 0.00 | 74 | 1016.9 |
| 20260831192009 | 73 | 285 | 2.6 | 0.0 | 0.00 | 0.00 | 0.00 | 74 | 1016.9 |
| 20260831191508 | 73 | 284 | 2.6 | 0.0 | 0.00 | 0.00 | 0.00 | 75 | 1017.0 |
| 20260831191008 | 73 | 291 | 3.5 | 0.0 | 0.00 | 0.00 | 0.00 | 75 | 1017.0 |
| 20260831190507 | 73 | 293 | 3.5 | 0.0 | 0.00 | 0.00 | 0.00 | 74 | 1017.1 |
| 20260831190007 | 73 | 292 | 3.5 | 0.0 | 0.00 | 0.00 | 0.00 | 72 | 1017.1 |
| 20260831185506 | 73 | 290 | 3.5 | 0.0 | 0.00 | 0.00 | 0.00 | 73 | 1017.3 |
| 20260831185005 | 73 | 298 | 3.5 | 0.0 | 0.00 | 0.00 | 0.00 | 72 | 1017.4 |
| 20260831184505 | 73 | 304 | 3.5 | 0.0 | 0.00 | 0.00 | 0.00 | 71 | 1017.5 |
| 20260831184005 | 73 | 323 | 3.5 | 0.0 | 0.00 | 0.00 | 0.00 | 74 | 1017.6 |
| 20260831183505 | 73 | 319 | 3.5 | 0.0 | 0.00 | 0.00 | 0.00 | 74 | 1017.6 |
| 20260831183005 | 73 | 321 | 3.5 | 0.0 | 0.00 | 0.00 | 0.00 | 74 | 1017.7 |
| 20260831182504 | 73 | 323 | 4.3 | 0.0 | 0.00 | 0.00 | 0.00 | 75 | 1017.7 |
| 20260831182004 | 73 | 316 | 5.2 | 0.0 | 0.00 | 0.00 | 0.00 | 73 | 1017.9 |
| 20260831181504 | 73 | 306 | 5.2 | 0.0 | 0.00 | 0.00 | 0.00 | 75 | 1017.9 |
| 20260831181004 | 73 | 306 | 5.2 | 0.0 | 0.00 | 0.00 | 0.00 | 72 | 1017.9 |
| 20260831180504 | 73 | 292 | 4.3 | 0.0 | 0.00 | 0.00 | 0.00 | 71 | 1017.9 |
| 20260831180003 | 73 | 286 | 5.2 | 0.0 | 0.00 | 0.00 | 0.00 | 73 | 1017.8 |
| 20260831175504 | 74 | 290 | 5.2 | 0.0 | 0.00 | 0.00 | 0.00 | 73 | 1017.9 |
| 20260831175003 | 74 | 281 | 6.1 | 0.0 | 0.00 | 0.00 | 0.00 | 74 | 1017.9 |
| 20260831174502 | 74 | 265 | 5.2 | 0.0 | 0.00 | 0.00 | 0.00 | 76 | 1017.9 |
| 20260831174002 | 73 | 255 | 6.1 | 0.0 | 0.00 | 0.00 | 0.00 | 75 | 1017.9 |
| 20260831173601 | 73 | 271 | 7.0 | 0.0 | 0.00 | 0.00 | 0.00 | 73 | 1018.0 |
| 20260831173100 | 73 | 271 | 7.0 | 0.0 | 0.00 | 0.00 | 0.00 | 74 | 1018.1 |
| 20260831172559 | 73 | 265 | 7.0 | 0.0 | 0.00 | 0.00 | 0.00 | 77 | 1018.2 |
| 20260831172057 | 72 | 273 | 6.1 | 0.0 | 0.00 | 0.00 | 0.00 | 78 | 1018.2 |
| 20260831171558 | 72 | 286 | 5.2 | 0.0 | 0.00 | 0.00 | 0.00 | 76 | 1018.2 |
| 20260831171055 | 72 | 283 | 5.2 | 0.0 | 0.00 | 0.00 | 0.00 | 75 | 1018.3 |
| 20260831170555 | 71 | 284 | 4.3 | 0.0 | 0.00 | 0.00 | 0.00 | 77 | 1018.2 |
| 20260831170053 | 71 | 294 | 3.5 | 0.0 | 0.00 | 0.00 | 0.00 | 76 | 1018.1 |
| 20260831165557 | 71 | 294 | 4.3 | 0.0 | 0.00 | 0.00 | 0.00 | 78 | 1018.2 |
| 20260831165053 | 71 | 294 | 5.2 | 0.0 | 0.00 | 0.00 | 0.00 | 77 | 1018.3 |
| 20260831164555 | 71 | 279 | 5.2 | 0.0 | 0.00 | 0.00 | 0.00 | 81 | 1018.3 |
| 20260831164054 | 71 | 285 | 4.3 | 0.0 | 0.00 | 0.00 | 0.00 | 81 | 1018.6 |
| 20260831163552 | 71 | 301 | 4.3 | 0.0 | 0.00 | 0.00 | 0.00 | 79 | 1018.8 |
| 20260831163051 | 71 | 306 | 5.2 | 0.0 | 0.00 | 0.00 | 0.00 | 78 | 1018.8 |
| 20260831162552 | 71 | 284 | 5.2 | 0.0 | 0.00 | 0.00 | 0.00 | 80 | 1018.8 |
| 20260831162050 | 70 | 281 | 5.2 | 0.0 | 0.00 | 0.00 | 0.00 | 81 | 1018.8 |
| 20260831161548 | 70 | 281 | 6.1 | 0.0 | 0.00 | 0.00 | 0.00 | 83 | 1018.8 |
| 20260831161049 | 70 | 286 | 5.2 | 0.0 | 0.00 | 0.00 | 0.00 | 82 | 1018.9 |
| 20260831160546 | 69 | 284 | 4.3 | 0.0 | 0.00 | 0.00 | 0.00 | 83 | 1018.8 |
| 20260831160045 | 69 | 264 | 4.3 | 0.0 | 0.00 | 0.00 | 0.00 | 85 | 1018.8 |
| 20260831155545 | 69 | 285 | 3.5 | 0.0 | 0.00 | 0.00 | 0.00 | 83 | 1019.1 |
| 20260831155045 | 68 | 292 | 3.5 | 0.0 | 0.00 | 0.00 | 0.00 | 83 | 1018.9 |
| 20260831154545 | 69 | 301 | 2.6 | 0.0 | 0.00 | 0.00 | 0.00 | 82 | 1019.0 |
| 20260831154045 | 69 | 302 | 3.5 | 0.0 | 0.00 | 0.00 | 0.00 | 81 | 1019.0 |
| 20260831153547 | 68 | 300 | 3.5 | 0.0 | 0.00 | 0.00 | 0.00 | 83 | 1019.1 |
| 20260831153043 | 69 | 300 | 4.3 | 0.0 | 0.00 | 0.00 | 0.00 | 82 | 1019.2 |
| 20260831152544 | 69 | 283 | 5.2 | 0.0 | 0.00 | 0.00 | 0.00 | 83 | 1019.2 |
| 20260831152042 | 68 | 288 | 5.2 | 0.0 | 0.00 | 0.00 | 0.00 | 82 | 1019.3 |
| 20260831151542 | 68 | 288 | 4.3 | 0.0 | 0.00 | 0.00 | 0.00 | 84 | 1019.3 |
| 20260831151041 | 68 | 296 | 4.3 | 0.0 | 0.00 | 0.00 | 0.00 | 83 | 1019.2 |
| 20260831150540 | 68 | 293 | 4.3 | 0.0 | 0.00 | 0.00 | 0.00 | 84 | 1019.4 |
| 20260831150038 | 67 | 287 | 4.3 | 0.0 | 0.00 | 0.00 | 0.00 | 86 | 1019.4 |
| 20260831145540 | 67 | 275 | 4.3 | 0.0 | 0.00 | 0.00 | 0.00 | 86 | 1019.4 |
| 20260831145036 | 67 | 277 | 3.5 | 0.0 | 0.00 | 0.00 | 0.00 | 88 | 1019.3 |
| 20260831144535 | 66 | 270 | 2.6 | 0.0 | 0.00 | 0.00 | 0.00 | 88 | 1019.2 |
| 20260831144034 | 66 | 284 | 1.7 | 0.0 | 0.00 | 0.00 | 0.00 | 88 | 1019.1 |
| 20260831143535 | 65 | 284 | 1.7 | 0.0 | 0.00 | 0.00 | 0.00 | 89 | 1019.1 |
| 20260831143039 | 65 | 284 | 2.6 | 0.0 | 0.00 | 0.00 | 0.00 | 89 | 1019.2 |
| 20260831142534 | 65 | 303 | 1.7 | 0.0 | 0.00 | 0.00 | 0.00 | 89 | 1019.3 |
| 20260831142034 | 65 | 319 | 1.7 | 0.0 | 0.00 | 0.00 | 0.00 | 91 | 1019.1 |
| 20260831141533 | 64 | 319 | 1.7 | 0.0 | 0.00 | 0.00 | 0.00 | 91 | 1019.2 |
| 20260831141033 | 64 | 319 | 1.7 | 0.0 | 0.00 | 0.00 | 0.00 | 91 | 1019.3 |
| 20260831140535 | 64 | 319 | 1.7 | 0.0 | 0.00 | 0.00 | 0.00 | 91 | 1019.3 |
| 20260831140034 | 64 | 319 | 1.7 | 0.0 | 0.00 | 0.00 | 0.00 | 92 | 1019.3 |
| 20260831135533 | 63 | 319 | 1.7 | 0.0 | 0.00 | 0.00 | 0.00 | 94 | 1019.4 |
| 20260831135033 | 63 | 337 | 1.7 | 0.0 | 0.00 | 0.00 | 0.00 | 93 | 1019.3 |
| 20260831134533 | 63 | 340 | 1.7 | 0.0 | 0.00 | 0.00 | 0.00 | 94 | 1019.1 |
| 20260831134032 | 63 | 332 | 1.7 | 0.0 | 0.00 | 0.00 | 0.00 | 94 | 1019.2 |
| 20260831133533 | 63 | 331 | 1.7 | 0.0 | 0.00 | 0.00 | 0.00 | 94 | 1019.3 |
| 20260831133032 | 63 | 334 | 2.6 | 0.0 | 0.00 | 0.00 | 0.00 | 94 | 1019.3 |
| 20260831132532 | 63 | 334 | 3.5 | 0.0 | 0.00 | 0.00 | 0.00 | 94 | 1019.4 |
| 20260831132032 | 62 | 331 | 2.6 | 0.0 | 0.00 | 0.00 | 0.00 | 95 | 1019.3 |
| 20260831131543 | 62 | 9 | 0.9 | 0.0 | 0.00 | 0.00 | 0.00 | 94 | 1019.4 |
| 20260831131033 | 62 | 9 | 0.9 | 0.0 | 0.00 | 0.00 | 0.00 | 95 | 1019.4 |
| 20260831130531 | 62 | 5 | 0.9 | 0.0 | 0.00 | 0.00 | 0.00 | 95 | 1019.5 |
| 20260831130034 | 62 | 16 | 0.9 | 0.0 | 0.00 | 0.00 | 0.00 | 95 | 1019.4 |
| 20260831125531 | 62 | 80 | 0.9 | 0.0 | 0.00 | 0.00 | 0.00 | 95 | 1019.5 |
| 20260831125033 | 62 | 82 | 1.7 | 0.0 | 0.00 | 0.00 | 0.00 | 95 | 1019.4 |
| 20260831124531 | 62 | 28 | 1.7 | 0.0 | 0.00 | 0.00 | 0.00 | 95 | 1019.5 |
| 20260831124031 | 62 | 37 | 2.6 | 0.0 | 0.00 | 0.00 | 0.00 | 95 | 1019.5 |
| 20260831123530 | 62 | 342 | 2.6 | 0.0 | 0.00 | 0.00 | 0.00 | 95 | 1019.4 |
| 20260831123030 | 61 | 9 | 0.9 | 0.0 | 0.00 | 0.00 | 0.00 | 96 | 1019.5 |
| 20260831122530 | 61 | 52 | 0.9 | 0.0 | 0.00 | 0.00 | 0.00 | 96 | 1019.5 |
| 20260831122030 | 61 | 105 | 1.7 | 0.0 | 0.00 | 0.00 | 0.00 | 96 | 1019.5 |
| 20260831121531 | 61 | 106 | 1.7 | 0.0 | 0.00 | 0.00 | 0.00 | 96 | 1019.5 |
| 20260831121031 | 61 | 80 | 1.7 | 0.0 | 0.00 | 0.00 | 0.00 | 96 | 1019.5 |
| 20260831120529 | 61 | 81 | 1.7 | 0.0 | 0.00 | 0.00 | 0.00 | 96 | 1019.5 |
| 20260831120028 | 61 | 102 | 1.7 | 0.0 | 0.00 | 0.00 | 0.00 | 96 | 1019.5 |
| 20260831115528 | 60 | 101 | 2.6 | 0.0 | 0.00 | 0.00 | 0.00 | 96 | 1019.5 |
| 20260831115032 | 60 | 97 | 2.6 | 0.0 | 0.00 | 0.00 | 0.00 | 96 | 1019.6 |
| 20260831114527 | 60 | 80 | 2.6 | 0.0 | 0.00 | 0.00 | 0.00 | 96 | 1019.5 |
| 20260831114027 | 59 | 105 | 2.6 | 0.0 | 0.00 | 0.00 | 0.00 | 96 | 1019.4 |
| 20260831113527 | 59 | 114 | 3.5 | 0.0 | 0.00 | 0.00 | 0.00 | 96 | 1019.3 |
| 20260831113026 | 59 | 119 | 2.6 | 0.0 | 0.00 | 0.00 | 0.00 | 96 | 1019.3 |
| 20260831112526 | 59 | 134 | 1.7 | 0.0 | 0.00 | 0.00 | 0.00 | 96 | 1019.3 |
| 20260831112025 | 58 | 134 | 2.6 | 0.0 | 0.00 | 0.00 | 0.00 | 95 | 1019.3 |
| 20260831111526 | 58 | 134 | 1.7 | 0.0 | 0.00 | 0.00 | 0.00 | 96 | 1019.3 |
| 20260831111025 | 58 | 133 | 0.0 | 0.0 | 0.00 | 0.00 | 0.00 | 95 | 1019.2 |
| 20260831110524 | 58 | 133 | 0.0 | 0.0 | 0.00 | 0.00 | 0.00 | 95 | 1019.2 |
| 20260831110026 | 58 | 133 | 1.7 | 0.0 | 0.00 | 0.00 | 0.00 | 95 | 1019.1 |
| 20260831105523 | 58 | 133 | 3.5 | 0.0 | 0.00 | 0.00 | 0.00 | 95 | 1019.0 |